Date,TemperatureHighF,TemperatureAvgF,TemperatureLowF,DewpointHighF,DewpointAvgF,DewpointLowF,HumidityHigh,HumidityAvg,HumidityLow,PressureMaxIn,PressureMinIn,WindSpeedMaxMPH,WindSpeedAvgMPH,GustSpeedMaxMPH,PrecipitationSumIn
2013-1-1,19.9,9.0,3.4,2.3,-8.0,-15.5,49,45,39,17.72,17.72,14,1,14,0.00
2013-1-2,20.7,8.0,0.7,-1.5,-12.6,-20.4,45,38,34,17.72,17.72,10,1,10,0.00
2013-1-3,27.9,10.2,-0.6,1.8,-12.5,-21.7,41,34,31,17.72,17.72,6,0,6,0.00
2013-1-4,37.4,20.6,12.0,14.4,-1.7,-11.0,46,37,33,17.72,17.72,6,0,6,0.00
2013-1-5,34.7,20.0,10.9,8.7,-3.0,-10.8,38,35,33,17.72,17.72,9,0,9,0.00
2013-1-6,44.6,28.1,16.7,11.0,-2.9,-12.3,34,26,21,17.72,17.72,9,1,9,0.00
2013-1-7,41.7,29.0,23.4,7.1,-3.8,-11.0,27,23,19,17.72,17.72,10,1,10,0.00
2013-1-8,36.1,29.0,23.2,11.8,3.6,-9.7,37,33,21,17.72,17.72,15,2,15,0.00
2013-1-9,45.3,30.2,22.6,15.1,4.4,-0.7,36,33,28,17.72,17.72,9,1,9,0.00
2013-1-10,26.6,24.9,24.1,5.1,0.4,-0.9,41,34,31,17.72,0.00,12,1,12,0.00
2013-1-11,25.3,17.3,2.8,10.4,-1.0,-18.0,60,44,36,0.00,0.00,24,4,24,0.00
2013-1-12,17.2,2.3,-6.9,-5.0,-18.5,-26.8,38,36,35,0.00,0.00,15,2,16,0.00
2013-1-13,11.5,0.0,-7.6,-10.3,-20.6,-27.5,36,36,36,0.00,0.00,10,1,10,0.00
2013-1-14,12.6,-0.7,-9.6,-9.3,-21.2,-29.2,36,36,36,0.00,0.00,12,1,12,0.00
2013-1-15,25.3,11.9,-8.0,7.0,-7.6,-27.8,46,40,36,0.00,0.00,11,1,11,0.00
2013-1-16,38.1,24.4,15.6,16.4,7.2,1.7,59,48,39,0.00,0.00,5,0,5,0.00
2013-1-17,40.3,25.0,17.1,16.2,4.9,-3.1,52,42,33,0.00,0.00,6,0,6,0.00
2013-1-18,41.2,30.7,21.6,10.1,1.4,-6.0,33,28,21,0.00,0.00,15,3,15,0.00
2013-1-19,45.5,30.1,19.8,11.3,-0.4,-6.3,33,27,17,0.00,0.00,14,2,15,0.00
2013-1-20,42.1,28.4,20.7,9.4,-2.9,-11.9,35,25,21,0.00,0.00,13,1,13,0.00
2013-1-21,42.6,28.6,17.2,14.0,2.0,-7.2,39,32,20,0.00,0.00,18,2,19,0.00
2013-1-22,46.8,36.3,28.2,4.1,-3.6,-12.8,23,18,14,0.00,0.00,27,4,27,0.00
2013-1-23,51.8,41.7,33.3,4.0,-1.8,-8.9,18,16,13,0.00,0.00,24,5,27,0.00
2013-1-24,48.2,38.0,28.8,18.0,5.9,-9.4,41,27,16,0.00,0.00,22,2,22,0.00
2013-1-25,47.3,36.5,28.2,22.5,16.0,9.9,51,43,37,0.00,0.00,17,3,17,0.00
2013-1-26,46.4,34.8,26.4,24.5,17.3,9.7,66,49,38,0.00,0.00,8,1,8,0.00
2013-1-27,42.4,33.6,27.9,23.3,16.3,8.5,70,50,38,0.00,0.00,15,2,15,0.04
2013-1-28,37.0,29.0,21.9,20.8,15.1,8.3,69,56,45,0.00,0.00,13,2,13,0.00
2013-1-29,22.1,13.8,2.1,11.6,-3.1,-19.2,66,47,34,0.00,0.00,15,1,17,0.00
2013-1-30,25.7,14.2,0.0,6.0,-5.7,-21.2,48,40,35,0.00,0.00,26,5,26,0.00
2013-1-31,31.3,24.1,19.0,8.5,4.0,0.2,46,42,36,0.00,0.00,34,8,34,0.00
2013-2-1,33.1,24.1,16.0,11.4,5.2,-0.6,49,44,40,0.00,0.00,29,6,29,0.00
2013-2-2,44.8,28.0,13.6,11.2,2.3,-2.8,54,35,20,0.00,0.00,12,1,12,0.00
2013-2-3,41.9,28.9,22.3,5.2,-1.8,-8.1,32,26,18,0.00,0.00,19,2,19,0.00
2013-2-4,39.9,28.1,20.1,9.3,-0.6,-10.1,36,28,23,0.00,0.00,19,2,19,0.00
2013-2-5,48.9,35.1,22.6,17.0,8.7,-2.2,41,33,27,0.00,0.00,9,1,9,0.00
2013-2-6,40.3,31.8,25.7,18.0,12.0,6.8,64,44,35,0.00,0.00,13,1,13,0.00
2013-2-7,38.7,25.7,14.2,14.5,6.0,-2.9,62,44,29,0.00,0.00,7,0,8,0.00
2013-2-8,40.6,30.5,23.0,15.4,7.6,-1.2,47,38,32,0.00,0.00,13,3,15,0.00
2013-2-9,32.4,25.6,15.8,11.9,7.6,2.3,56,46,41,0.00,0.00,12,1,12,0.00
2013-2-10,22.8,15.5,11.7,10.3,2.5,-1.0,58,56,53,0.00,0.00,10,0,10,0.00
2013-2-11,26.4,12.2,3.0,9.5,-0.8,-8.8,63,55,43,0.00,0.00,10,0,10,0.00
2013-2-12,29.8,13.7,2.3,9.0,-2.8,-10.5,54,48,39,0.00,0.00,7,1,7,0.00
2013-2-13,32.9,19.9,9.9,11.8,1.1,-7.7,53,43,39,0.00,0.00,22,3,22,0.00
2013-2-14,28.8,17.3,8.6,11.6,0.3,-6.2,53,47,42,0.00,0.00,8,1,8,0.00
2013-2-15,27.7,17.8,9.1,3.7,-0.9,-5.9,50,43,34,0.00,0.00,24,3,24,0.00
2013-2-16,40.5,28.2,17.6,13.2,5.5,-0.9,45,38,31,0.00,0.00,18,4,18,0.00
2013-2-17,42.4,31.0,21.6,9.4,2.6,-3.3,40,30,21,0.00,0.00,23,6,23,0.00
2013-2-18,27.1,18.6,9.7,2.8,-2.6,-12.5,48,39,32,0.00,0.00,17,2,17,0.00
2013-2-19,42.4,24.7,9.7,9.4,-2.9,-13.5,38,30,21,0.00,0.00,13,1,13,0.00
2013-2-20,36.7,25.4,18.5,12.9,4.9,-2.9,54,41,36,0.00,0.00,8,0,8,0.00
2013-2-21,27.5,19.4,10.4,12.0,5.1,-3.3,59,53,49,0.00,0.00,6,0,6,0.00
2013-2-22,26.2,15.2,8.1,9.4,0.4,-5.5,59,51,47,0.00,0.00,13,1,13,0.00
2013-2-23,36.9,21.7,7.0,14.9,3.8,-8.1,56,46,40,0.00,0.00,17,2,17,0.00
2013-2-24,21.9,17.6,6.1,9.5,4.9,-7.0,63,57,50,0.00,0.00,8,0,8,0.00
2013-2-25,34.9,17.3,2.8,14.3,0.9,-10.0,59,48,41,0.00,0.00,6,0,6,0.08
2013-2-26,24.6,18.4,10.0,11.8,4.1,-4.1,62,53,45,0.00,0.00,10,0,10,0.00
2013-2-27,25.0,12.0,2.1,6.0,-4.6,-13.1,59,47,39,0.00,0.00,11,1,11,0.00
2013-2-28,30.0,17.4,3.7,9.2,-2.0,-15.2,48,42,38,0.00,0.00,20,4,20,0.00
2013-3-1,39.2,28.8,17.8,14.7,7.4,-1.3,45,40,35,0.00,0.00,14,2,14,0.00
2013-3-2,46.8,33.6,22.3,21.7,11.9,5.6,52,41,31,0.00,0.00,17,2,17,0.04
2013-3-3,46.6,36.3,27.0,19.9,13.6,6.4,50,39,33,0.00,0.00,27,5,27,0.00
2013-3-4,37.8,26.3,7.7,18.2,9.1,-9.2,62,48,39,0.00,0.00,25,3,25,0.00
2013-3-5,44.8,24.7,6.3,9.5,-1.8,-10.5,45,33,18,0.00,0.00,17,2,17,0.00
2013-3-6,50.5,35.9,21.9,18.7,7.2,-6.1,35,30,24,0.00,0.00,16,3,16,0.00
2013-3-7,53.1,39.7,29.5,19.1,8.7,2.6,31,28,19,0.00,0.00,14,2,14,0.00
2013-3-8,46.8,36.6,27.9,17.7,12.2,2.0,50,36,30,0.00,0.00,13,1,13,0.00
2013-3-9,30.6,25.9,17.2,18.3,13.5,4.6,66,59,51,0.00,0.00,10,0,10,0.00
2013-3-10,33.8,21.6,7.5,12.8,3.9,-5.3,56,46,39,0.00,0.00,15,2,15,0.00
2013-3-11,36.9,28.4,21.0,14.8,9.1,2.9,51,44,40,0.00,0.00,29,5,29,0.00
2013-3-12,41.9,29.1,20.7,21.0,14.2,8.3,74,55,38,0.00,0.00,15,2,15,0.00
2013-3-13,45.7,36.2,27.9,21.1,14.7,9.8,47,41,34,0.00,0.00,22,4,22,0.00
2013-3-14,53.6,42.1,29.3,22.4,15.1,10.1,44,34,23,0.00,0.00,14,2,14,0.00
2013-3-15,55.8,43.6,32.4,21.2,15.7,10.9,42,33,25,0.00,0.00,30,4,30,0.00
2013-3-16,45.5,36.9,29.5,26.6,17.8,10.7,55,46,35,0.00,0.00,11,1,12,0.00
2013-3-17,40.3,30.2,22.8,20.2,12.6,5.5,55,48,38,0.00,0.00,17,4,17,0.00
2013-3-18,33.8,26.1,18.9,12.1,6.3,0.1,53,42,36,0.00,0.00,19,5,19,0.00
2013-3-19,39.6,29.0,20.3,10.7,0.8,-13.1,54,31,18,0.00,0.00,27,5,28,0.00
2013-3-20,47.7,30.6,14.4,17.8,5.2,-8.6,42,34,27,0.00,0.00,27,4,27,0.00
2013-3-21,41.7,33.3,23.9,19.2,12.2,1.8,57,41,32,0.00,0.00,24,5,24,0.00
2013-3-22,38.3,25.9,16.2,10.0,3.9,-2.7,52,39,29,0.00,0.00,17,2,17,0.00
2013-3-23,21.4,13.4,5.0,5.7,-2.2,-11.2,53,49,46,0.00,0.00,6,0,6,0.00
2013-3-24,21.6,9.5,0.0,1.7,-8.9,-17.6,47,42,38,0.00,0.00,14,2,14,0.00
2013-3-25,32.9,14.8,-2.2,10.7,-5.4,-21.6,46,40,37,0.00,0.00,7,1,8,0.00
2013-3-26,43.7,27.6,12.0,19.8,7.6,-6.2,52,42,34,0.00,0.00,15,2,15,0.08
2013-3-27,46.0,34.4,25.7,21.9,16.5,10.3,68,48,35,0.00,0.00,13,2,13,0.00
2013-3-28,50.2,35.5,24.8,23.4,15.4,9.4,57,44,33,0.00,0.00,10,1,10,0.00
2013-3-29,51.4,37.4,28.2,26.4,17.8,12.9,54,45,36,0.00,0.00,15,2,17,0.00
2013-3-30,49.3,38.8,27.9,24.1,19.1,13.8,59,46,34,0.00,0.00,17,3,17,0.00
2013-3-31,55.6,39.0,22.6,18.8,11.8,4.0,63,35,17,0.00,0.00,14,2,14,0.00
2013-4-1,49.3,36.3,24.4,25.4,16.0,6.3,61,43,34,0.00,0.00,13,1,13,0.00
2013-4-2,36.1,33.1,29.1,28.0,23.5,19.3,76,68,56,0.00,0.00,4,0,4,0.00
2013-4-3,46.6,34.1,22.3,25.6,18.2,12.3,78,54,36,0.00,0.00,9,1,9,0.35
2013-4-4,57.4,41.7,27.3,24.5,17.1,10.4,52,38,26,0.00,0.00,11,2,11,0.00
2013-4-5,57.2,44.6,34.5,24.5,17.8,10.3,54,34,26,0.00,0.00,20,2,20,0.00
2013-4-6,52.9,39.0,27.3,24.4,16.7,10.2,52,41,31,0.00,0.00,13,2,13,0.00
2013-4-7,48.6,38.6,32.0,25.3,17.0,11.9,47,41,34,0.00,0.00,20,5,26,0.00
2013-4-8,53.6,40.3,30.0,24.2,17.5,12.7,52,40,27,0.00,0.00,12,2,12,0.00
2013-4-9,30.2,17.7,6.8,14.4,2.3,-9.6,57,50,45,0.00,0.00,8,1,8,0.00
2013-4-10,33.8,16.6,-0.2,17.1,0.6,-16.1,64,49,45,0.00,0.00,15,1,17,0.12
2013-4-11,46.4,31.8,17.4,23.8,15.0,2.0,59,50,38,0.00,0.00,13,2,14,0.00
2013-4-12,47.3,33.4,24.1,19.5,14.6,8.7,60,47,27,0.00,0.00,15,2,15,0.00
2013-4-13,54.1,39.8,25.0,22.0,14.7,6.2,52,36,27,0.00,0.00,20,5,20,0.00
2013-4-14,38.1,31.2,25.7,24.2,12.2,7.9,61,45,37,0.00,0.00,21,5,22,0.00
2013-4-15,28.8,25.9,22.5,17.6,13.5,8.0,64,59,42,0.00,0.00,5,0,5,0.00
2013-4-16,40.5,28.9,18.7,27.5,17.9,8.7,75,63,54,0.00,0.00,8,0,8,0.31
2013-4-17,27.5,21.8,10.4,18.1,11.2,-3.7,73,63,52,0.00,0.00,4,0,4,0.00
2013-4-18,27.5,16.0,4.1,8.4,-0.9,-9.6,63,47,37,0.00,0.00,17,2,17,0.00
2013-4-19,41.2,27.2,15.1,18.4,7.7,-2.0,49,43,39,0.00,0.00,17,4,17,0.04
2013-4-20,43.3,32.6,23.9,23.2,16.3,9.0,62,51,41,0.00,0.00,10,2,10,0.00
2013-4-21,46.6,34.3,23.7,22.6,16.1,10.6,63,48,37,0.00,0.00,12,2,13,0.08
2013-4-22,41.5,32.3,16.5,23.5,16.5,3.6,64,52,41,0.00,0.00,17,2,17,0.00
2013-4-23,34.3,21.3,13.1,17.1,7.5,0.9,63,55,46,0.00,0.00,8,1,8,0.04
2013-4-24,40.3,24.5,9.7,17.3,6.1,-2.5,57,46,35,0.00,0.00,20,3,20,0.08
2013-4-25,55.0,40.1,24.6,23.1,13.2,2.5,39,33,27,0.00,0.00,19,3,19,0.00
2013-4-26,53.8,39.4,28.2,22.6,14.4,7.7,42,36,28,0.00,0.00,8,1,8,0.00
2013-4-27,60.1,43.9,29.8,23.7,15.5,9.0,44,32,22,0.00,0.00,13,3,13,0.00
2013-4-28,64.0,48.7,34.2,26.5,17.3,9.1,37,29,21,0.00,0.00,14,3,15,0.00
2013-4-29,65.1,50.5,35.6,26.7,21.3,13.9,51,33,23,0.00,0.00,15,3,15,0.00
2013-4-30,60.1,48.1,37.0,30.8,22.8,13.0,59,37,26,0.00,0.00,15,1,15,0.00
2013-5-1,37.4,27.3,16.0,24.3,15.2,3.5,71,60,52,0.00,0.00,5,0,5,0.00
2013-5-2,39.2,23.9,8.6,22.3,9.7,-3.1,73,55,45,0.00,0.00,6,0,6,0.24
2013-5-3,50.0,34.4,20.3,24.8,15.1,6.3,58,46,37,0.00,0.00,8,1,8,0.00
2013-5-4,48.0,35.5,25.3,26.3,19.6,11.9,69,53,38,0.00,0.00,8,0,8,0.00
2013-5-5,50.9,39.2,27.1,28.8,24.0,18.8,78,56,38,0.00,0.00,8,0,8,0.00
2013-5-6,51.6,39.8,31.5,32.7,26.3,19.4,81,60,38,0.00,0.00,7,1,7,0.08
2013-5-7,58.1,43.7,34.3,30.5,26.1,20.6,76,52,30,0.00,0.00,11,2,14,0.00
2013-5-8,41.9,35.6,32.4,33.9,26.7,19.2,79,70,55,0.00,0.00,7,0,7,0.16
2013-5-9,40.5,35.5,30.2,34.9,29.7,23.1,86,79,72,0.00,0.00,5,0,5,0.31
2013-5-10,45.7,36.3,27.5,36.0,26.8,20.6,87,69,51,0.00,0.00,9,0,9,0.71
2013-5-11,50.4,41.7,32.0,33.3,28.0,22.1,79,59,38,0.00,0.00,8,1,8,0.00
2013-5-12,62.8,49.9,36.1,31.8,26.2,21.1,57,41,28,0.00,0.00,13,3,13,0.00
2013-5-13,71.8,57.5,46.6,38.5,30.1,22.5,42,35,26,0.00,0.00,13,3,13,0.00
2013-5-14,67.6,55.4,47.3,37.4,29.6,23.6,52,38,25,0.00,0.00,12,2,12,0.00
2013-5-15,62.4,50.5,43.3,39.5,31.8,24.6,69,50,34,0.00,0.00,13,1,13,0.04
2013-5-16,68.7,52.1,39.4,32.8,28.9,22.3,65,43,24,0.00,0.00,18,2,18,0.00
2013-5-17,73.6,56.3,41.0,30.7,23.8,16.0,43,30,16,0.00,0.00,13,2,13,0.00
2013-5-18,58.5,47.6,40.8,27.3,20.0,12.9,43,33,27,0.00,0.00,14,2,14,0.00
2013-5-19,57.9,44.5,34.0,25.2,20.3,15.4,53,39,27,0.00,0.00,16,4,16,0.00
2013-5-20,55.4,43.9,34.5,30.4,22.4,14.8,57,43,30,0.00,0.00,10,1,10,0.00
2013-5-21,58.6,44.8,30.4,27.1,20.9,12.6,56,40,26,0.00,0.00,17,2,17,0.00
2013-5-22,65.1,49.5,34.5,33.4,25.3,17.9,54,40,27,0.00,0.00,8,1,8,0.00
2013-5-23,68.7,53.3,40.1,37.5,31.8,26.1,73,46,26,0.00,0.00,12,1,12,0.00
2013-5-24,76.3,56.7,40.3,31.1,24.9,12.3,60,34,11,0.00,0.00,13,2,13,0.00
2013-5-25,75.2,58.3,41.5,27.2,15.7,7.1,32,20,10,0.00,0.00,13,2,13,0.00
2013-5-26,73.0,58.3,47.8,25.8,16.2,7.1,28,20,11,0.00,0.00,9,2,9,0.00
2013-5-27,72.3,62.5,48.0,19.2,13.9,9.7,24,15,11,0.00,0.00,16,3,16,0.00
2013-5-28,69.3,54.9,41.9,25.2,16.0,11.3,31,22,12,0.00,0.00,13,2,13,0.00
2013-5-29,59.2,49.0,40.8,34.4,23.8,14.8,64,38,26,0.00,0.00,17,3,21,0.04
2013-5-30,51.6,43.9,37.4,28.3,21.3,16.5,55,41,32,0.00,0.00,23,5,23,0.00
2013-5-31,57.9,45.2,36.1,22.3,17.9,11.7,52,34,22,0.00,0.00,23,5,23,0.00
2013-6-1,63.1,48.0,33.3,33.7,21.5,8.0,45,35,29,0.00,0.00,8,1,8,0.00
2013-6-2,77.4,55.8,35.8,32.5,24.3,16.1,51,32,13,0.00,0.00,10,1,10,0.00
2013-6-3,73.6,60.6,48.6,27.0,20.6,16.1,28,22,13,0.00,0.00,17,3,17,0.00
2013-6-4,70.9,55.6,41.7,41.0,27.7,17.5,59,35,22,0.00,0.00,17,1,17,0.00
2013-6-5,64.8,49.8,41.4,43.2,36.8,29.4,77,62,42,0.00,0.00,8,1,8,0.04
2013-6-6,64.6,53.2,37.0,36.6,30.4,21.9,59,43,33,0.00,0.00,6,0,6,0.00
2013-6-7,68.2,54.6,44.2,40.4,31.2,25.1,56,42,25,0.00,0.00,11,1,11,0.00
2013-6-8,74.7,60.4,48.7,33.7,28.8,20.4,47,31,17,0.00,0.00,17,3,17,0.00
2013-6-9,78.4,60.7,43.0,33.1,26.4,20.5,49,30,14,0.00,0.00,13,2,13,0.00
2013-6-10,82.2,67.6,52.2,34.2,26.6,21.3,32,22,12,0.00,0.00,13,2,13,0.00
2013-6-11,82.9,68.9,55.2,27.2,18.9,8.6,26,16,8,0.00,0.00,22,4,22,0.00
2013-6-12,80.2,65.6,51.1,29.3,21.3,8.4,27,19,12,0.00,0.00,10,1,10,0.00
2013-6-13,81.9,65.0,51.4,32.5,25.3,18.9,34,23,12,0.00,0.00,15,2,15,0.00
2013-6-14,77.4,64.4,52.2,33.8,28.8,22.0,38,27,13,0.00,0.00,12,2,12,0.00
2013-6-15,74.3,60.7,46.2,41.3,33.0,21.4,44,35,25,0.00,0.00,10,1,10,0.00
2013-6-16,69.6,58.0,48.0,37.5,30.5,23.6,44,36,24,0.00,0.00,11,1,17,0.00
2013-6-17,64.4,55.3,45.7,46.6,32.7,23.2,68,43,31,0.00,0.00,10,1,10,0.12
2013-6-18,72.3,58.1,48.7,38.6,33.9,26.7,55,41,25,0.00,0.00,14,1,14,0.00
2013-6-19,81.3,64.4,44.4,34.3,22.7,5.1,52,25,7,0.00,0.00,15,2,15,0.00
2013-6-20,78.1,62.7,47.3,28.8,18.1,2.3,27,18,10,0.00,0.00,8,1,8,0.00
2013-6-21,84.4,64.4,48.2,26.6,17.9,9.8,27,18,8,0.00,0.00,11,1,13,0.00
2013-6-22,77.5,63.5,49.1,33.2,21.1,8.4,38,21,10,0.00,0.00,10,2,10,0.00
2013-6-23,77.2,61.2,46.0,35.3,24.9,9.8,43,25,15,0.00,0.00,12,1,12,0.00
2013-6-24,69.3,63.3,59.2,16.5,14.2,11.8,17,15,12,0.00,0.00,5,0,6,0.00
2013-6-25,77.5,63.9,48.4,33.3,24.1,11.3,29,22,17,0.00,0.00,11,2,12,0.00
2013-6-26,86.0,68.0,52.3,36.8,28.0,21.8,34,23,13,0.00,0.00,11,1,11,0.00
2013-6-27,84.6,70.6,57.7,36.2,29.3,22.8,27,22,14,0.00,0.00,6,1,8,0.00
2013-6-28,82.8,70.7,60.3,49.6,34.4,23.1,67,28,12,0.00,0.00,11,1,11,0.16
2013-6-29,71.2,60.2,53.6,50.2,43.3,37.2,68,55,34,0.00,0.00,11,1,11,0.04
2013-6-30,69.1,58.0,50.7,51.6,42.9,36.7,71,58,40,0.00,0.00,8,0,8,0.12
2013-7-1,65.8,53.8,45.9,52.6,41.0,29.2,89,63,36,0.00,0.00,9,0,9,0.28
2013-7-2,68.7,53.8,44.1,45.7,40.0,36.0,85,62,37,0.00,0.00,7,1,7,0.00
2013-7-3,69.3,53.0,44.1,52.8,39.1,26.8,82,61,32,0.00,0.00,8,1,9,0.28
2013-7-4,71.6,55.6,46.6,48.6,39.7,36.6,76,57,34,0.00,0.00,6,1,10,0.04
2013-7-5,73.6,61.7,54.5,43.7,39.6,35.5,58,45,32,0.00,0.00,11,2,11,0.04
2013-7-6,73.4,63.9,56.5,45.4,39.9,36.4,57,42,32,0.00,0.00,13,2,14,0.04
2013-7-7,73.2,61.8,51.4,55.9,43.8,37.6,98,54,32,0.00,0.00,9,1,9,0.28
2013-7-8,76.5,61.4,48.9,51.2,42.5,33.6,94,56,25,0.00,0.00,12,2,14,0.04
2013-7-9,77.2,65.2,55.4,44.7,37.6,31.8,49,37,26,0.00,0.00,8,1,8,0.04
2013-7-10,77.4,64.2,53.4,43.8,38.7,33.3,54,40,26,0.00,0.00,15,1,15,0.00
2013-7-11,83.7,65.2,50.5,55.1,41.5,35.3,98,48,20,0.00,0.00,10,1,10,1.26
2013-7-12,72.9,59.1,49.6,53.4,49.1,45.5,98,73,39,0.00,0.00,9,1,13,0.00
2013-7-13,71.8,60.1,51.3,59.5,49.1,43.3,98,69,36,0.00,0.00,8,0,9,0.91
2013-7-14,66.2,57.1,49.6,56.5,50.7,46.3,98,80,62,0.00,0.00,6,0,6,0.04
2013-7-15,63.7,55.7,51.3,58.7,52.6,47.1,98,90,68,0.00,0.00,5,0,5,0.28
2013-7-16,71.4,57.4,43.0,52.9,45.9,37.2,98,68,40,0.00,0.00,8,1,8,0.00
2013-7-17,76.1,61.7,47.5,48.8,42.4,35.5,72,51,33,0.00,0.00,10,1,14,0.00
2013-7-18,77.2,64.1,55.8,46.8,41.8,38.2,64,45,32,0.00,0.00,15,2,15,0.00
2013-7-19,68.4,61.0,54.0,53.4,45.0,39.0,67,56,40,0.00,0.00,10,0,10,0.00
2013-7-20,75.0,62.9,51.3,45.2,40.0,33.1,63,44,30,0.00,0.00,8,0,8,0.00
2013-7-21,80.4,65.9,54.0,42.8,37.2,26.4,62,38,15,0.00,0.00,14,3,14,0.00
2013-7-22,83.1,67.2,56.5,35.5,30.5,16.6,38,27,9,0.00,0.00,14,3,14,0.00
2013-7-23,82.9,67.8,56.7,36.8,29.3,22.0,35,25,12,0.00,0.00,10,1,11,0.00
2013-7-24,75.2,60.4,53.8,52.8,41.9,32.3,89,52,32,0.00,0.00,9,1,9,0.71
2013-7-25,65.7,54.6,47.5,51.1,45.5,40.8,98,74,43,0.00,0.00,8,1,10,0.39
2013-7-26,68.2,56.4,44.8,51.8,45.5,40.2,98,69,41,0.00,0.00,9,0,9,0.08
2013-7-27,70.7,60.7,51.6,49.0,43.7,35.5,73,55,34,0.00,0.00,12,2,12,0.00
2013-7-28,64.4,56.6,51.1,52.2,47.7,42.4,82,72,57,0.00,0.00,12,1,12,0.12
2013-7-29,64.4,55.4,49.8,51.1,43.6,38.5,81,65,46,0.00,0.00,6,1,6,0.31
2013-7-30,70.2,58.3,45.5,44.5,40.2,36.3,82,54,33,0.00,0.00,15,1,17,0.00
2013-7-31,71.6,61.3,50.2,47.0,38.6,31.6,59,44,32,0.00,0.00,6,0,6,0.00
2013-8-1,70.5,60.0,52.0,46.4,40.7,35.6,64,50,35,0.00,0.00,10,1,15,0.00
2013-8-2,78.4,63.8,52.7,47.3,38.6,34.2,58,41,21,0.00,0.00,12,1,12,0.00
2013-8-3,75.2,61.5,53.4,53.9,42.6,37.8,76,51,32,0.00,0.00,8,1,8,0.24
2013-8-4,69.1,58.4,49.3,48.5,42.6,35.3,70,57,37,0.00,0.00,10,0,10,0.04
2013-8-5,69.4,58.3,50.2,47.3,41.1,35.5,68,54,35,0.00,0.00,13,1,13,0.00
2013-8-6,70.9,59.5,52.0,44.1,38.1,33.1,59,46,32,0.00,0.00,10,1,10,0.00
2013-8-7,57.9,53.1,48.9,52.9,42.0,33.0,98,67,49,0.00,0.00,6,0,6,0.20
2013-8-8,64.0,53.0,46.2,45.9,38.1,32.0,69,57,46,0.00,0.00,6,0,6,0.00
2013-8-9,63.9,51.4,44.6,48.6,38.0,30.3,92,62,38,0.00,0.00,13,1,13,0.20
2013-8-10,66.6,55.9,44.1,43.4,38.2,33.4,80,54,33,0.00,0.00,10,1,10,0.00
2013-8-11,66.6,55.1,47.5,45.8,38.8,34.7,68,55,37,0.00,0.00,6,0,9,0.04
2013-8-12,69.4,55.1,47.7,44.2,39.5,34.9,77,57,34,0.00,0.00,6,1,6,0.28
2013-8-13,59.2,52.4,44.2,47.9,42.4,36.8,83,69,56,0.00,0.00,9,0,9,0.04
2013-8-14,65.1,55.0,43.7,45.0,35.9,29.6,72,50,29,0.00,0.00,9,1,9,0.04
2013-8-15,73.8,57.8,45.9,38.5,31.8,27.3,53,39,21,0.00,0.00,11,2,12,0.00
2013-8-16,71.2,61.5,51.1,39.1,32.8,27.0,49,35,23,0.00,0.00,10,1,10,0.00
2013-8-17,78.6,64.3,54.1,35.6,30.8,26.6,37,29,20,0.00,0.00,9,2,9,0.00
2013-8-18,74.8,63.4,54.9,40.5,34.2,28.9,43,34,25,0.00,0.00,10,2,10,0.00
2013-8-19,77.2,64.2,54.0,41.6,35.4,30.7,49,35,23,0.00,0.00,17,1,17,0.00
2013-8-20,77.4,67.1,56.5,40.7,34.2,30.7,44,30,21,0.00,0.00,11,1,11,0.00
2013-8-21,74.5,63.4,57.2,51.1,38.5,30.6,54,40,29,0.00,0.00,6,0,6,0.00
2013-8-22,70.5,60.3,53.1,49.8,43.2,35.5,81,55,37,0.00,0.00,11,0,11,0.43
2013-8-23,70.0,58.4,50.0,53.7,46.5,42.8,84,66,46,0.00,0.00,7,0,7,0.00
2013-8-24,69.1,62.5,53.8,51.5,46.5,42.2,80,57,40,0.00,0.00,11,1,13,0.08
2013-8-25,70.5,59.3,51.1,53.0,46.3,42.1,79,64,39,0.00,0.00,8,0,8,0.08
2013-8-26,72.0,62.5,54.3,54.2,45.6,41.8,73,55,38,0.00,0.00,10,1,10,0.24
2013-8-27,63.0,61.8,57.4,54.2,52.3,44.9,73,71,63,0.00,0.00,4,0,4,0.24
2013-8-28,72.5,62.2,52.5,50.5,43.9,39.5,73,52,35,0.00,0.00,5,0,5,0.24
2013-8-29,73.4,61.6,53.6,47.0,41.9,35.9,64,49,33,0.00,0.00,10,1,10,0.24
2013-8-30,71.2,61.3,55.9,48.4,43.1,39.5,65,52,37,0.00,0.00,14,2,14,0.00
2013-8-31,71.1,60.9,54.5,50.9,42.3,36.3,72,51,34,0.00,0.00,11,1,11,0.24
2013-9-1,64.0,57.8,51.8,54.2,47.2,41.4,73,68,54,0.00,40.00,9,1,9,0.08
2013-9-2,70.3,59.8,51.3,50.4,43.8,39.3,71,56,37,0.00,40.00,8,1,8,0.04
2013-9-3,74.5,63.2,55.2,50.7,42.9,34.9,77,49,33,0.00,40.00,10,1,14,0.31
2013-9-4,54.9,54.0,53.4,43.6,42.1,40.7,67,64,61,0.00,40.00,5,0,6,0.00
2013-9-5,76.5,62.6,54.0,48.9,42.8,37.3,67,50,31,0.00,0.00,8,1,8,0.00
2013-9-6,74.7,63.7,55.6,43.7,38.6,34.1,48,40,30,0.00,0.00,6,0,8,0.00
2013-9-7,74.3,62.4,53.1,46.7,37.4,31.3,51,40,30,0.00,0.00,7,0,7,0.00
2013-9-8,73.4,61.5,52.5,44.0,37.5,31.2,52,41,31,0.00,0.00,7,0,10,0.00
2013-9-9,70.2,58.7,49.8,49.2,40.9,35.3,75,52,37,0.00,0.00,8,0,8,0.24
2013-9-10,55.6,53.0,51.4,52.5,48.5,43.1,94,85,73,0.00,0.00,4,0,4,0.28
2013-9-11,57.6,53.2,51.1,56.5,51.8,49.7,98,95,91,0.00,0.00,4,0,4,0.00
2013-9-12,60.6,53.9,50.7,55.9,51.4,49.1,98,92,73,0.00,0.00,5,0,5,0.00
2013-9-13,50.9,49.9,48.4,50.2,47.9,44.3,98,93,80,0.00,0.00,5,0,5,0.00
2013-9-14,60.3,52.2,46.0,49.0,43.5,39.8,86,73,57,0.00,0.00,8,1,8,0.00
2013-9-15,51.6,47.8,44.8,51.1,45.8,41.9,98,93,76,0.00,0.00,3,0,4,0.00
2013-9-16,59.9,49.6,40.5,54.3,45.7,37.5,98,87,70,0.00,0.00,6,0,6,0.00
2013-9-17,67.6,53.8,43.3,45.1,37.5,30.3,72,55,37,0.00,0.00,8,2,9,0.00
2013-9-18,64.6,52.2,45.9,41.5,36.5,31.9,71,56,36,0.00,0.00,10,2,12,0.00
2013-9-19,56.5,48.1,43.3,42.8,35.4,29.9,78,62,47,0.00,0.00,12,1,12,0.00
2013-9-20,64.4,48.6,37.8,40.8,34.5,28.3,78,60,38,0.00,0.00,7,1,7,0.00
2013-9-21,68.7,53.1,41.7,38.3,31.2,25.5,66,44,32,0.00,0.00,10,1,10,0.00
2013-9-22,59.7,50.5,45.1,40.1,33.8,26.8,73,53,42,0.00,0.00,10,1,10,0.00
2013-9-23,52.5,45.8,36.7,36.5,25.7,16.0,76,47,31,0.00,0.00,20,4,20,0.00
2013-9-24,66.0,48.2,33.1,30.0,20.3,12.0,44,34,24,0.00,0.00,9,1,10,0.00
2013-9-25,67.6,55.8,47.5,29.4,22.4,16.6,31,27,23,0.00,0.00,18,5,18,0.00
2013-9-26,68.0,54.2,44.6,31.2,23.2,15.7,48,30,20,0.00,0.00,14,2,14,0.00
2013-9-27,54.7,44.9,32.2,35.3,24.9,12.2,55,45,38,0.00,0.00,18,2,24,0.00
2013-9-28,58.1,39.7,25.2,23.4,15.2,7.3,46,37,25,0.00,0.00,16,2,16,0.00
2013-9-29,65.1,49.0,37.0,25.8,17.2,11.8,39,28,19,0.00,0.00,22,3,22,0.00
2013-9-30,72.5,55.6,45.3,33.8,24.0,16.7,40,30,22,0.00,0.00,10,1,11,0.00
2013-10-1,68.0,54.0,45.1,32.3,24.8,16.7,40,32,25,0.00,0.00,10,1,10,0.00
2013-10-2,66.2,51.4,40.8,30.3,24.2,18.1,48,35,25,0.00,0.00,7,1,7,0.00
2013-10-3,64.8,49.2,39.2,34.7,26.6,18.3,67,43,23,0.00,0.00,10,1,10,0.00
2013-10-4,44.2,34.0,22.6,34.2,19.4,7.9,73,56,40,0.00,0.00,13,2,13,0.00
2013-10-5,48.4,32.4,19.4,11.2,5.4,-0.2,61,36,14,0.00,0.00,10,2,12,0.00
2013-10-6,60.6,42.5,29.7,27.4,15.8,0.6,44,34,27,0.00,0.00,6,1,8,0.00
2013-10-7,67.5,49.2,36.3,25.2,16.8,9.5,38,28,17,0.00,0.00,6,1,6,0.00
2013-10-8,67.1,51.9,43.9,27.2,18.0,14.3,33,26,15,0.00,0.00,10,1,10,0.00
2013-10-9,57.7,46.3,38.8,29.8,23.1,15.4,54,40,32,0.00,0.00,8,0,8,0.00
2013-10-10,51.3,41.3,33.6,31.5,25.6,18.5,79,54,38,0.00,0.00,13,1,16,0.00
2013-10-11,47.3,39.1,34.0,23.4,18.6,14.3,54,44,37,0.00,0.00,33,8,33,0.00
2013-10-12,52.3,37.0,26.6,28.0,19.3,10.9,81,49,35,0.00,0.00,10,1,10,0.00
2013-10-13,54.0,40.9,31.5,27.6,23.5,17.8,79,51,35,0.00,0.00,10,2,10,0.00
2013-10-14,42.6,38.5,33.1,26.5,20.8,17.0,64,49,39,0.00,0.00,28,3,28,0.00
2013-10-15,33.1,29.0,26.2,21.2,18.9,16.8,69,66,61,0.00,0.00,4,0,4,0.00
2013-10-16,41.0,30.2,22.6,19.5,14.9,6.7,72,54,38,0.00,0.00,13,1,13,0.00
2013-10-17,46.9,32.1,24.1,22.0,11.0,4.8,59,41,31,0.00,0.00,13,2,14,0.00
2013-10-18,36.5,28.9,24.1,19.9,12.7,5.6,69,51,36,0.00,0.00,13,2,13,0.00
2013-10-19,48.7,29.8,22.6,21.4,9.9,4.7,50,43,32,0.00,0.00,10,1,10,0.00
2013-10-21,34.9,31.5,29.5,15.2,13.5,12.6,49,47,44,0.00,0.00,5,0,5,0.00
2013-10-22,54.3,38.6,28.0,27.3,18.5,12.6,53,44,35,0.00,0.00,8,1,8,0.00
2013-10-23,55.9,40.2,30.9,26.5,17.4,11.1,46,40,30,0.00,0.00,8,0,8,0.00
2013-10-24,56.1,41.1,32.0,24.4,17.2,10.6,45,38,28,0.00,0.00,8,1,8,0.00
2013-10-25,55.0,42.9,34.3,25.7,19.0,12.7,43,38,30,0.00,0.00,6,1,8,0.00
2013-10-26,54.1,39.7,28.4,27.1,19.2,13.7,59,44,34,0.00,0.00,10,1,10,0.00
2013-10-27,55.6,43.4,36.7,21.8,16.5,12.3,41,34,26,0.00,0.00,14,3,14,0.00
2013-10-28,44.4,35.9,28.8,25.1,17.8,12.6,62,48,37,0.00,0.00,8,0,8,0.00
2013-10-29,50.9,39.4,30.2,21.9,17.0,13.6,55,40,30,0.00,0.00,15,4,15,0.00
2013-10-30,39.6,31.6,24.8,24.7,13.2,6.2,69,46,39,0.00,0.00,16,4,19,0.00
2013-10-31,37.6,29.4,22.5,15.1,9.9,5.5,54,44,39,0.00,0.00,20,4,20,0.00
2013-11-1,38.1,31.0,25.3,25.9,15.2,4.9,77,52,38,0.00,0.00,22,2,22,0.04
2013-11-2,54.3,37.9,24.8,15.5,5.5,-1.5,42,28,15,0.00,0.00,22,4,22,0.00
2013-11-3,53.1,43.2,31.8,16.0,7.6,-0.9,45,24,15,0.00,0.00,18,4,18,0.00
2013-11-4,39.4,30.7,24.1,17.3,9.5,1.9,56,41,33,0.00,0.00,13,2,13,0.00
2013-11-5,30.2,23.9,12.6,15.2,5.6,-8.2,60,46,33,0.00,0.00,17,2,17,0.00
2013-11-6,35.6,25.5,12.2,11.4,4.1,-8.5,43,39,35,0.00,0.00,22,4,22,0.00
2013-11-7,50.2,34.8,22.8,20.4,11.3,4.0,48,38,30,0.00,0.00,17,2,17,0.00
2013-11-8,46.2,40.3,36.9,15.6,12.3,8.8,38,31,28,0.00,0.00,29,8,29,0.00
2013-11-9,53.6,41.3,31.1,20.3,12.0,5.5,36,30,26,0.00,0.00,14,2,14,0.00
2013-11-10,52.3,39.9,31.1,18.6,11.2,6.0,38,31,23,0.00,0.00,15,2,15,0.00
2013-11-11,51.6,39.4,27.0,17.6,10.9,5.4,44,31,24,0.00,0.00,11,1,11,0.00
2013-11-12,49.3,34.0,22.8,19.9,11.8,7.1,55,41,30,0.00,0.00,10,1,10,0.00
2013-11-13,52.7,39.3,30.6,16.0,7.2,-0.9,30,26,18,0.00,0.00,13,2,14,0.00
2013-11-14,46.8,37.0,30.4,17.0,8.9,-2.8,45,32,17,0.00,0.00,10,2,13,0.00
2013-11-15,44.2,34.4,27.9,17.7,8.3,-1.0,53,34,25,0.00,0.00,13,3,13,0.00
2013-11-16,39.9,31.9,26.2,18.3,11.1,5.8,58,42,32,0.00,0.00,28,6,28,0.00
2013-11-17,38.7,29.1,24.6,14.6,10.3,6.0,56,45,35,0.00,0.00,32,6,32,0.00
2013-11-18,51.1,35.6,25.0,17.5,7.9,1.5,43,31,21,0.00,0.00,12,2,12,0.00
2013-11-19,46.9,37.8,30.4,17.1,11.4,3.5,47,34,28,0.00,0.00,13,2,13,0.00
2013-11-20,43.0,35.3,30.9,22.8,14.5,11.1,71,43,33,0.00,0.00,13,2,13,0.00
2013-11-21,31.1,18.5,6.8,23.1,7.5,-5.2,73,62,55,0.00,0.00,5,0,5,0.00
2013-11-22,31.1,21.2,10.8,14.6,7.2,-1.5,65,55,44,0.00,0.00,4,0,5,0.00
2013-11-23,29.5,23.9,19.9,17.2,11.8,7.5,74,60,52,0.00,0.00,4,0,4,0.00
2013-11-24,36.7,30.8,24.3,24.3,19.2,5.3,77,62,37,0.00,0.00,12,1,12,0.00
2013-11-25,32.2,26.5,18.5,16.1,10.0,3.3,58,50,34,0.00,0.00,9,1,9,0.00
2013-11-26,35.8,23.1,14.9,14.4,7.6,3.2,68,52,38,0.00,0.00,8,0,8,0.00
2013-11-27,46.4,34.6,21.4,17.9,11.0,2.9,45,37,30,0.00,0.00,10,2,11,0.00
2013-11-28,46.2,33.7,25.2,18.0,10.4,5.8,44,38,31,0.00,0.00,9,2,10,0.00
2013-11-29,43.9,33.5,27.9,15.1,8.3,3.2,38,34,30,0.00,0.00,17,3,17,0.00
2013-11-30,43.7,33.0,26.8,12.8,5.3,0.8,35,31,26,0.00,0.00,15,4,15,0.00
2013-12-1,40.1,32.5,25.5,14.7,7.5,0.4,44,35,30,0.00,0.00,30,6,33,0.00
2013-12-2,39.9,34.9,32.2,17.0,13.5,11.7,44,41,37,0.00,0.00,33,12,33,0.00
2013-12-3,34.9,29.9,12.2,20.2,12.8,-2.9,57,49,42,0.00,0.00,13,2,15,0.00
2013-12-4,12.6,2.2,-10.7,-2.5,-12.2,-24.1,50,50,50,0.00,0.00,4,0,4,0.00
2013-12-5,-3.5,-4.7,-9.6,-17.6,-18.7,-24.2,50,50,48,0.00,0.00,4,0,4,0.00
2013-12-6,11.1,-0.8,-15.9,-4.7,-15.8,-29.8,48,48,48,0.00,0.00,8,1,9,0.00
2013-12-7,19.8,9.1,0.1,3.2,-6.4,-14.9,52,49,46,0.00,0.00,10,2,10,0.00
2013-12-8,15.1,9.4,2.1,-1.4,-7.6,-16.6,50,45,40,0.00,0.00,20,3,20,0.00
2013-12-9,17.1,6.2,-3.1,-5.4,-14.0,-21.4,40,38,34,0.00,0.00,24,4,25,0.00
2013-12-10,28.8,20.2,10.0,8.0,0.6,-11.0,44,42,37,0.00,0.00,32,11,32,0.00
2013-12-11,32.2,18.6,7.5,6.2,-2.6,-8.9,46,39,31,0.00,0.00,15,2,15,0.00
2013-12-12,46.9,30.8,18.7,15.6,3.0,-5.7,35,30,23,0.00,0.00,13,2,13,0.00
2013-12-13,39.4,29.7,19.6,9.8,2.5,-4.1,45,31,23,0.00,0.00,16,2,16,0.00
2013-12-14,33.3,20.2,9.7,10.4,1.3,-6.1,51,43,34,0.00,0.00,17,1,17,0.00
2013-12-15,41.5,30.8,23.4,15.9,8.7,3.6,49,39,32,0.00,0.00,26,3,26,0.00
2013-12-16,43.3,35.2,25.7,13.2,8.2,0.6,40,32,25,0.00,0.00,32,7,32,0.00
2013-12-17,46.4,33.6,25.5,16.5,7.3,0.6,38,33,28,0.00,0.00,12,2,13,0.00
2013-12-18,48.0,36.5,29.7,15.6,7.9,3.4,33,30,24,0.00,0.00,11,1,14,0.00
2013-12-19,45.0,32.5,22.1,15.7,9.8,3.5,55,39,29,0.00,0.00,12,2,13,0.00
2013-12-20,34.0,24.7,19.6,16.8,7.9,0.7,53,48,43,0.00,0.00,11,2,11,0.00
2013-12-21,29.5,19.2,10.4,12.4,3.4,-4.6,62,50,43,0.00,0.00,10,0,10,0.00
2013-12-22,22.5,13.6,4.5,4.3,-2.2,-8.9,58,49,43,0.00,0.00,15,2,17,0.00
2013-12-23,32.5,24.0,16.3,11.5,5.8,0.9,51,45,41,0.00,0.00,22,5,22,0.00
2013-12-24,34.3,25.2,9.3,17.8,7.0,-9.3,53,45,39,0.00,0.00,22,5,22,0.00
2013-12-25,34.2,19.1,8.2,9.4,-2.2,-10.1,42,38,33,0.00,0.00,6,0,6,0.00
2013-12-26,41.2,29.9,22.8,14.3,6.2,-0.5,43,36,32,0.00,0.00,17,2,17,0.00
2013-12-27,45.9,30.8,22.8,19.8,9.2,3.0,44,40,32,0.00,0.00,6,1,6,0.00
2013-12-28,43.0,30.7,19.6,18.8,11.2,5.2,58,44,35,0.00,0.00,6,0,6,0.00
2013-12-29,27.0,18.8,9.3,11.4,2.9,-5.1,60,50,43,0.00,0.00,31,2,31,0.00
2013-12-30,32.4,24.7,16.5,8.9,4.2,0.2,51,41,34,0.00,0.00,21,3,21,0.00
2013-12-31,37.4,30.9,22.6,15.1,10.2,2.3,47,42,39,0.00,0.00,30,8,30,0.00
2014-1-1,28.6,23.4,12.0,15.1,7.2,-1.0,61,50,36,0.00,0.00,15,2,15,0.00
2014-1-2,39.7,25.5,10.9,15.1,5.2,-3.2,55,42,33,0.00,0.00,12,2,12,0.00